Location: Home
(42.5358°N, 72.7383°W)
Time: 09:51:26
(UTC-05:00)

Courier 1B - Pass Details

Date: 03 December 2021
Orbit: 962 x 1209 km, 28.3° (Epoch: 21 January)

Event Time Altitude Azimuth Distance (km) Brightness Sun altitude
Rises 16:41:46 0° 229° (SW) 4,027 12.6 -4.7°
Reaches altitude 10° 16:45:22 10° 215° (SW) 3,029 11.2 -5.3°
Maximum altitude 16:50:44 22° 168° (SSE) 2,224 9.6 -6.2°
Drops below altitude 10° 16:55:54 10° 122° (ESE) 2,898 9.7 -7.0°
Sets 16:59:14 0° 107° (ESE) 3,809 10.1 -7.6°
